APSTAR 7

Last updated on Jan. 17, 2021, 6:29 a.m. UTC

1 38107U 12013A   21016.76091028 -.00000106  00000-0  00000-0 0  9997
2 38107   0.0148  99.3758 0002226 200.3411 167.0927  1.00271738 31980
UTC
Height (km)
Latitude
Longitude
Inclination
Orbital Period
UTC large
Height (km)
Speed (km/s)
/
Latitude / Longitude
Inclination (degrees)
Orbital Period (minutes)
Azimuth
Elevation
Range (km)
Doppler Factor
iOS Compass Heading
iOS Angle

Next 30 passes for location: Hong Kong

Rise time Rise Azimuth (degrees) Set time Set Azimuth (degrees) Duration Max altitude (degrees)

No matching passes for this satellites